Weather History for Rochester, NY

Change the Weather History Date:

Wednesday, October 30, 2013

  Actual Average Record
Temperature  
Mean Temperature 48 °F 46 °F  
Max Temperature 58 °F 55 °F 78 °F (1946)
Min Temperature 38 °F 38 °F 23 °F (1988)
Degree Days  
Heating Degree Days 17 19  
Month to date heating degree days 354 433  
Since 1 July heating degree days 544 614  
Cooling Degree Days 0 0  
Month to date cooling degree days 10 0  
Year to date cooling degree days 660 534  
Moisture  
Dew Point 38 °F    
Average Humidity 70    
Maximum Humidity 92    
Minimum Humidity 47    
Precipitation  
Precipitation 0.03 in 0.08 in 1.90 in (1880)
Month to date precipitation 2.83 2.63  
Year to date precipitation 30.45 28.61  
Snow  
Snow 0.00 in 0.00 in 2.10 in (1885)
Month to date snowfall 0.0 0.1  
Since 1 July snowfall 0.0 0.1  
Since 1 September snowfall 0.0 0.1  
Snow Depth 0.00 in    
Sea Level Pressure  
Sea Level Pressure 30.23 in    
Wind  
Wind Speed 3 mph (East)    
Max Wind Speed 13 mph    
Max Gust Speed 14 mph    
Visibility 10 miles    
Events Rain    
T = Trace of Precipitation, MM = Missing Value Source: NWS Daily Summary

Daily Weather History Graph

Daily Weather History Graph

Search for Another Location

Airport:

Trip Planner

Search our weather history database for the weather conditions in past years. The results will help you decide how hot, cold, wet, or windy it might be!

Date:

Astronomy

Oct. 30, 2013 Rise Set
Actual Time 7:43 AM EDT 6:04 PM EDT
Civil Twilight 7:13 AM EDT 6:34 PM EDT
Nautical Twilight 6:40 AM EDT 7:07 PM EDT
Astronomical Twilight 6:07 AM EDT 7:40 PM EDT
Moon 3:23 AM EDT (10/30) 3:54 PM EDT (10/30)
Length of Visible Light 11h 20m
Length of Day
10h 21m
Waning Crescent, 17% of the Moon is Illuminated
Oct 30
Waning Crescent
Nov 3
New
Nov 10
First Quarter
Nov 17
Full
Nov 25
Last Quarter

Hourly Weather History & Observations

Time (EDT) Temp. Windchill Dew Point Humidity Pressure Visibility Wind Dir Wind Speed Gust Speed Precip Events Conditions
12:54 AM 39.0 °F - 33.1 °F 79% 30.31 in 10.0 mi Calm Calm - 0.01 in Rain Light Rain
1:54 AM 39.0 °F - 35.1 °F 86% 30.30 in 10.0 mi Calm Calm - 0.02 in Rain Light Rain
2:54 AM 39.0 °F - 35.1 °F 86% 30.28 in 10.0 mi Calm Calm - 0.01 in Rain Light Rain
3:54 AM 39.0 °F - 37.0 °F 93% 30.28 in 10.0 mi Calm Calm - 0.00 in Rain Light Rain
4:54 AM 39.9 °F - 37.0 °F 89% 30.27 in 10.0 mi Calm Calm - 0.00 in   Overcast
5:54 AM 39.9 °F - 37.9 °F 93% 30.27 in 10.0 mi Calm Calm - N/A   Overcast
6:54 AM 39.9 °F 37.8 °F 37.9 °F 93% 30.27 in 10.0 mi ESE 3.5 mph - N/A   Overcast
7:54 AM 39.9 °F 37.8 °F 37.0 °F 89% 30.27 in 10.0 mi ESE 3.5 mph - N/A   Overcast
8:54 AM 42.1 °F 39.2 °F 37.0 °F 82% 30.29 in 10.0 mi ENE 4.6 mph - N/A   Overcast
9:54 AM 44.1 °F 41.5 °F 37.0 °F 76% 30.28 in 10.0 mi ESE 4.6 mph - N/A   Mostly Cloudy
10:54 AM 46.0 °F 44.8 °F 37.0 °F 71% 30.28 in 10.0 mi SE 3.5 mph - N/A   Overcast
11:54 AM 48.0 °F - 37.9 °F 68% 30.27 in 10.0 mi SE 3.5 mph - N/A   Overcast
12:54 PM 51.1 °F - 37.9 °F 61% 30.24 in 10.0 mi ESE 4.6 mph - N/A   Mostly Cloudy
1:54 PM 54.0 °F - 37.9 °F 55% 30.21 in 10.0 mi NE 3.5 mph - N/A   Partly Cloudy
2:54 PM 55.9 °F - 37.9 °F 51% 30.20 in 10.0 mi Calm Calm - N/A   Partly Cloudy
3:54 PM 57.9 °F - 37.9 °F 47% 30.18 in 10.0 mi Calm Calm - N/A   Partly Cloudy
4:54 PM 55.9 °F - 39.0 °F 53% 30.17 in 10.0 mi ENE 5.8 mph - N/A   Partly Cloudy
5:54 PM 50.0 °F - 41.0 °F 71% 30.18 in 10.0 mi NE 8.1 mph - N/A   Scattered Clouds
6:54 PM 46.9 °F - 39.9 °F 77% 30.20 in 10.0 mi ENE 4.6 mph - N/A   Scattered Clouds
7:54 PM 46.9 °F - 39.9 °F 77% 30.19 in 10.0 mi East 5.8 mph - N/A   Scattered Clouds
8:54 PM 46.0 °F 43.1 °F 39.9 °F 79% 30.18 in 10.0 mi East 5.8 mph - N/A   Scattered Clouds
9:54 PM 45.0 °F 42.6 °F 39.9 °F 82% 30.17 in 10.0 mi ESE 4.6 mph - N/A   Clear
10:54 PM 45.0 °F 41.8 °F 37.9 °F 76% 30.17 in 10.0 mi SE 5.8 mph - N/A   Clear
11:54 PM 45.0 °F 42.6 °F 37.9 °F 76% 30.13 in 10.0 mi SE 4.6 mph - N/A   Clear